Location: ?????
(55.6500°N, 37.2500°E)
Time: 10:24:26
(UTC+00:00)

CZ-4C R/B - Pass Details

Date: 19 May 2025
Orbit: 425 x 537 km, 98.0° (Epoch: 13 June)

Event Time Altitude Azimuth Distance (km) Brightness Sun altitude
Rises 19:34:55 0° 21° (NNE) 2,630 7.5 -10.7°
Reaches altitude 10° 19:37:11 10° 30° (NNE) 1,719 6.3 -10.9°
Maximum altitude 19:40:36 35° 97° (E) 815 3.9 -11.1°
Enters shadow 19:42:48 18° 155° (SSE) 1,258 4.5 -11.2°
